This demonstration page uses our WeatherBlox Daily Observations layout. Learn more.

Left ArrowRight Arrow

34.02893, -84.19858

Hourly Observations for May 21, 2022

Temp ( °F °C ) Dew Point ( °F °C ) Humidity (%) Winds ( mph kmh ) Pressure ( in mb ) Visibility ( mi km ) Precip ( " mm )
12:53 am 00:53 Clear 73 22.8 65 18.3 76 76 SSE 3 6 30.01 1016 10 16 0.00 0.00
1:53 am 01:53 Clear 74 23.3 64 17.8 71 71 S 6 9 30.00 1016 10 16 0.00 0.00
2:53 am 02:53 Clear 73 22.8 65 18.3 76 76 SSE 5 7 30.00 1016 10 16 0.00 0.00
3:53 am 03:53 Clear 72 22.2 66 18.9 82 82 S 6 9 30.00 1016 10 16 0.00 0.00
4:53 am 04:53 Mostly Clear 71 21.7 66 18.9 84 84 S 5 7 30.03 1017 10 16 0.00 0.00
5:43 am 05:43 Mostly Cloudy 71 21.7 66 18.9 84 84 S 5 7 30.07 1018 10 16 0.00 0.00
5:53 am 05:53 Mostly Cloudy 71 21.7 67 19.4 87 87 S 6 9 30.05 1018 10 16 0.00 0.00
6:53 am 06:53 Mostly Cloudy 70 21.1 67 19.4 90 90 SSW 6 9 30.06 1018 10 16 0.00 0.00
7:02 am 07:02 Mostly Sunny 70 21.1 67 19.4 90 90 SSW 6 9 30.09 1019 10 16 0.00 0.00
7:22 am 07:22 Mostly Cloudy 72 22.2 68 20 87 87 SSW 6 9 30.10 1019 10 16 0.00 0.00
7:53 am 07:53 Cloudy 73 22.8 69 20.6 87 87 S 6 9 30.08 1019 10 16 0.00 0.00
8:53 am 08:53 Cloudy 75 23.9 68 20 79 79 WSW 10 17 30.09 1019 10 16 0.00 0.00
9:04 am 09:04 Mostly Cloudy 77 25 69 20.6 77 77 WSW 6 9 30.11 1020 10 16 0.00 0.00
9:53 am 09:53 Mostly Cloudy 76 24.4 68 20 77 77 W 6 9 30.11 1020 10 16 0.00 0.00
10:53 am 10:53 Mostly Cloudy 79 26.1 68 20 69 69 SW 9 15 30.12 1020 10 16 0.00 0.00
11:53 am 11:53 Mostly Cloudy 83 28.3 68 20 61 61 S 6 9 30.13 1020 10 16 0.00 0.00
12:53 pm 12:53 Mostly Sunny 84 28.9 68 20 59 59 W 8 13 30.12 1020 10 16 0.00 0.00
1:53 pm 13:53 Partly Cloudy 84 28.9 66 18.9 55 55 S 6 9 30.12 1020 10 16 0.00 0.00
2:53 pm 14:53 Cloudy 85 29.4 66 18.9 53 53 VRB 5 7 30.09 1019 10 16 0.00 0.00
3:53 pm 15:53 Mostly Sunny 87 30.6 65 18.3 48 48 SW 10 17 30.06 1018 10 16 0.00 0.00
4:53 pm 16:53 Partly Cloudy 85 29.4 65 18.3 51 51 WSW 8 13 30.04 1017 10 16 0.00 0.00
5:53 pm 17:53 Mostly Sunny 86 30 61 16.1 43 43 VRB 3 6 30.04 1017 10 16 0.00 0.00
6:53 pm 18:53 Partly Cloudy 86 30 63 17.2 46 46 S 6 9 30.06 1018 10 16 0.00 0.00
7:53 pm 19:53 Sunny 83 28.3 61 16.1 48 48 SW 6 9 30.06 1018 10 16 0.00 0.00
8:53 pm 20:53 Clear 79 26.1 63 17.2 58 58 S 5 7 30.10 1019 10 16 0.00 0.00
9:53 pm 21:53 Clear 78 25.6 65 18.3 64 64 SSE 7 11 30.11 1020 10 16 0.00 0.00
10:53 pm 22:53 Clear 75 23.9 66 18.9 74 74 S 8 13 30.11 1020 10 16 0.00 0.00
11:53 pm 23:53 Clear 75 23.9 65 18.3 71 71 S 6 9 30.11 1020 10 16 0.00 0.00

Powered by AerisWeather